<?xml version="1.0" encoding="UTF-8" standalone="no" ?><gpx xmlns="http://www.topografix.com/GPX/1/1" xmlns:gpxx="http://www.garmin.com/xmlschemas/GpxExtensions/v3" xmlns:wptx1="http://www.garmin.com/xmlschemas/WaypointExtension/v1" xmlns:gpxtpx="http://www.garmin.com/xmlschemas/TrackPointExtension/v1" creator="GuideVTT.com" version="1.1" xmlns:xsi="http://www.w3.org/2001/XMLSchema-instance" xsi:schemaLocation="http://www.topografix.com/GPX/1/1 http://www.topografix.com/GPX/1/1/gpx.xsd http://www.garmin.com/xmlschemas/GpxExtensions/v3 http://www8.garmin.com/xmlschemas/GpxExtensionsv3.xsd http://www.garmin.com/xmlschemas/WaypointExtension/v1 http://www8.garmin.com/xmlschemas/WaypointExtensionv1.xsd http://www.garmin.com/xmlschemas/TrackPointExtension/v1 http://www.garmin.com/xmlschemas/TrackPointExtensionv1.xsd">
<metadata><link href="http://www.garmin.com"><text>Garmin International</text></link><time>2013-06-22T15:13:50Z</time></metadata>
<trk><name>calanques.gpx</name><extensions><gpxx:TrackExtension><gpxx:DisplayColor>Cyan</gpxx:DisplayColor></gpxx:TrackExtension></extensions><trkseg>
<trkpt lat="43.21255100" lon="5.52238300"><ele>22</ele><time>2007-08-13T12:51:34Z</time></trkpt>
<trkpt lat="43.21239000" lon="5.52225200"><ele>16</ele><time>2007-08-13T12:51:34Z</time></trkpt>
<trkpt lat="43.21217000" lon="5.52205100"><ele>15</ele><time>2007-08-13T12:51:34Z</time></trkpt>
<trkpt lat="43.21202300" lon="5.52184000"><ele>18</ele><time>2007-08-13T12:51:34Z</time></trkpt>
<trkpt lat="43.21182500" lon="5.52153800"><ele>16</ele><time>2007-08-13T12:51:34Z</time></trkpt>
<trkpt lat="43.21167100" lon="5.52123700"><ele>15</ele><time>2007-08-13T12:51:34Z</time></trkpt>
<trkpt lat="43.21146600" lon="5.52105600"><ele>7</ele><time>2007-08-13T12:51:34Z</time></trkpt>
<trkpt lat="43.21129000" lon="5.52092500"><ele>5</ele><time>2007-08-13T12:51:34Z</time></trkpt>
<trkpt lat="43.21112100" lon="5.52074400"><ele>3</ele><time>2007-08-13T12:51:34Z</time></trkpt>
<trkpt lat="43.21098200" lon="5.52058300"><ele>3</ele><time>2007-08-13T12:51:34Z</time></trkpt>
<trkpt lat="43.21080600" lon="5.52041200"><ele>3</ele><time>2007-08-13T12:51:34Z</time></trkpt>
<trkpt lat="43.21062200" lon="5.52022100"><ele>3</ele><time>2007-08-13T12:51:34Z</time></trkpt>
<trkpt lat="43.21047600" lon="5.51999000"><ele>6</ele><time>2007-08-13T12:51:34Z</time></trkpt>
<trkpt lat="43.21032900" lon="5.51983900"><ele>7</ele><time>2007-08-13T12:51:34Z</time></trkpt>
<trkpt lat="43.21019700" lon="5.51970900"><ele>5</ele><time>2007-08-13T12:51:34Z</time></trkpt>
<trkpt lat="43.21001400" lon="5.51949800"><ele>5</ele><time>2007-08-13T12:51:34Z</time></trkpt>
<trkpt lat="43.20984000" lon="5.51933600"><ele>3</ele><time>2007-08-13T12:51:34Z</time></trkpt>
<trkpt lat="43.20967100" lon="5.51921600"><ele>1</ele><time>2007-08-13T12:51:34Z</time></trkpt>
<trkpt lat="43.20951000" lon="5.51904500"><ele>1</ele><time>2007-08-13T12:51:34Z</time></trkpt>
<trkpt lat="43.20930400" lon="5.51898500"><ele>1</ele><time>2007-08-13T12:51:34Z</time></trkpt>
<trkpt lat="43.20915800" lon="5.51881400"><ele>1</ele><time>2007-08-13T12:51:34Z</time></trkpt>
<trkpt lat="43.20900400" lon="5.51868300"><ele>1</ele><time>2007-08-13T12:51:34Z</time></trkpt>
<trkpt lat="43.20888600" lon="5.51855200"><ele>1</ele><time>2007-08-13T12:51:34Z</time></trkpt>
<trkpt lat="43.20876900" lon="5.51837100"><ele>1</ele><time>2007-08-13T12:51:34Z</time></trkpt>
<trkpt lat="43.20870300" lon="5.51815000"><ele>1</ele><time>2007-08-13T12:51:34Z</time></trkpt>
<trkpt lat="43.20863700" lon="5.51793900"><ele>1</ele><time>2007-08-13T12:51:34Z</time></trkpt>
<trkpt lat="43.20853400" lon="5.51767800"><ele>1</ele><time>2007-08-13T12:51:34Z</time></trkpt>
<trkpt lat="43.20846100" lon="5.51746600"><ele>2</ele><time>2007-08-13T12:51:34Z</time></trkpt>
<trkpt lat="43.20838700" lon="5.51723500"><ele>3</ele><time>2007-08-13T12:51:34Z</time></trkpt>
<trkpt lat="43.20832100" lon="5.51706400"><ele>3</ele><time>2007-08-13T12:51:34Z</time></trkpt>
<trkpt lat="43.20824800" lon="5.51689300"><ele>4</ele><time>2007-08-13T12:51:34Z</time></trkpt>
<trkpt lat="43.20816000" lon="5.51670200"><ele>4</ele><time>2007-08-13T12:51:34Z</time></trkpt>
<trkpt lat="43.20807900" lon="5.51660200"><ele>3</ele><time>2007-08-13T12:51:34Z</time></trkpt>
<trkpt lat="43.20802800" lon="5.51644100"><ele>3</ele><time>2007-08-13T12:51:34Z</time></trkpt>
<trkpt lat="43.20796900" lon="5.51629000"><ele>4</ele><time>2007-08-13T12:51:34Z</time></trkpt>
<trkpt lat="43.20786600" lon="5.51608900"><ele>4</ele><time>2007-08-13T12:51:34Z</time></trkpt>
<trkpt lat="43.20777800" lon="5.51596800"><ele>3</ele><time>2007-08-13T12:51:34Z</time></trkpt>
<trkpt lat="43.20765400" lon="5.51577700"><ele>1</ele><time>2007-08-13T12:51:34Z</time></trkpt>
<trkpt lat="43.20755100" lon="5.51558600"><ele>3</ele><time>2007-08-13T12:51:34Z</time></trkpt>
<trkpt lat="43.20741900" lon="5.51545500"><ele>4</ele><time>2007-08-13T12:51:34Z</time></trkpt>
<trkpt lat="43.20730200" lon="5.51538500"><ele>5</ele><time>2007-08-13T12:51:34Z</time></trkpt>
<trkpt lat="43.20719900" lon="5.51522400"><ele>6</ele><time>2007-08-13T12:51:34Z</time></trkpt>
<trkpt lat="43.20698600" lon="5.51511400"><ele>9</ele><time>2007-08-13T12:51:34Z</time></trkpt>
<trkpt lat="43.20679600" lon="5.51505400"><ele>10</ele><time>2007-08-13T12:51:34Z</time></trkpt>
<trkpt lat="43.20654600" lon="5.51503400"><ele>11</ele><time>2007-08-13T12:51:34Z</time></trkpt>
<trkpt lat="43.20629000" lon="5.51497300"><ele>12</ele><time>2007-08-13T12:51:34Z</time></trkpt>
<trkpt lat="43.20609900" lon="5.51490300"><ele>10</ele><time>2007-08-13T12:51:34Z</time></trkpt>
<trkpt lat="43.20593000" lon="5.51486300"><ele>8</ele><time>2007-08-13T12:51:34Z</time></trkpt>
<trkpt lat="43.20581300" lon="5.51471200"><ele>10</ele><time>2007-08-13T12:51:34Z</time></trkpt>
<trkpt lat="43.20577600" lon="5.51449100"><ele>15</ele><time>2007-08-13T12:51:34Z</time></trkpt>
<trkpt lat="43.20575500" lon="5.51421000"><ele>21</ele><time>2007-08-13T12:51:34Z</time></trkpt>
<trkpt lat="43.20575500" lon="5.51385800"><ele>31</ele><time>2007-08-13T12:51:34Z</time></trkpt>
<trkpt lat="43.20569600" lon="5.51362600"><ele>30</ele><time>2007-08-13T12:51:34Z</time></trkpt>
<trkpt lat="43.20556400" lon="5.51344500"><ele>24</ele><time>2007-08-13T12:51:34Z</time></trkpt>
<trkpt lat="43.20552000" lon="5.51322400"><ele>23</ele><time>2007-08-13T12:51:34Z</time></trkpt>
<trkpt lat="43.20554900" lon="5.51302300"><ele>26</ele><time>2007-08-13T12:51:34Z</time></trkpt>
<trkpt lat="43.20543200" lon="5.51279200"><ele>23</ele><time>2007-08-13T12:51:34Z</time></trkpt>
<trkpt lat="43.20526300" lon="5.51256000"><ele>18</ele><time>2007-08-13T12:51:34Z</time></trkpt>
<trkpt lat="43.20508700" lon="5.51225900"><ele>19</ele><time>2007-08-13T12:51:34Z</time></trkpt>
<trkpt lat="43.20497700" lon="5.51201800"><ele>25</ele><time>2007-08-13T12:51:34Z</time></trkpt>
<trkpt lat="43.20488100" lon="5.51177600"><ele>28</ele><time>2007-08-13T12:51:34Z</time></trkpt>
<trkpt lat="43.20469800" lon="5.51168600"><ele>22</ele><time>2007-08-13T12:51:34Z</time></trkpt>
<trkpt lat="43.20459500" lon="5.51148500"><ele>20</ele><time>2007-08-13T12:51:34Z</time></trkpt>
<trkpt lat="43.20458800" lon="5.51123300"><ele>22</ele><time>2007-08-13T12:51:34Z</time></trkpt>
<trkpt lat="43.20458000" lon="5.51096200"><ele>15</ele><time>2007-08-13T12:51:34Z</time></trkpt>
<trkpt lat="43.20444800" lon="5.51088100"><ele>12</ele><time>2007-08-13T12:51:34Z</time></trkpt>
<trkpt lat="43.20432400" lon="5.51069000"><ele>7</ele><time>2007-08-13T12:51:34Z</time></trkpt>
<trkpt lat="43.20426500" lon="5.51043900"><ele>8</ele><time>2007-08-13T12:51:34Z</time></trkpt>
<trkpt lat="43.20425000" lon="5.51023800"><ele>12</ele><time>2007-08-13T12:51:34Z</time></trkpt>
<trkpt lat="43.20418700" lon="5.51028100"><ele>10</ele><time>2007-08-13T12:51:34Z</time></trkpt>
<trkpt lat="43.20409600" lon="5.51030100"><ele>10</ele><time>2007-08-13T12:51:34Z</time></trkpt>
<trkpt lat="43.20400100" lon="5.51023800"><ele>12</ele><time>2007-08-13T12:51:34Z</time></trkpt>
<trkpt lat="43.20392300" lon="5.51011700"><ele>15</ele><time>2007-08-13T12:51:34Z</time></trkpt>
<trkpt lat="43.20387000" lon="5.50999700"><ele>19</ele><time>2007-08-13T12:51:34Z</time></trkpt>
<trkpt lat="43.20380700" lon="5.50985700"><ele>22</ele><time>2007-08-13T12:51:34Z</time></trkpt>
<trkpt lat="43.20376100" lon="5.50970700"><ele>25</ele><time>2007-08-13T12:51:34Z</time></trkpt>
<trkpt lat="43.20370500" lon="5.50958600"><ele>27</ele><time>2007-08-13T12:51:34Z</time></trkpt>
<trkpt lat="43.20364100" lon="5.50945600"><ele>30</ele><time>2007-08-13T12:51:34Z</time></trkpt>
<trkpt lat="43.20360900" lon="5.50936900"><ele>33</ele><time>2007-08-13T12:51:34Z</time></trkpt>
<trkpt lat="43.20356400" lon="5.50930100"><ele>35</ele><time>2007-08-13T12:51:34Z</time></trkpt>
<trkpt lat="43.20351800" lon="5.50930100"><ele>35</ele><time>2007-08-13T12:51:34Z</time></trkpt>
<trkpt lat="43.20346500" lon="5.50919000"><ele>39</ele><time>2007-08-13T12:51:34Z</time></trkpt>
<trkpt lat="43.20347500" lon="5.50902100"><ele>42</ele><time>2007-08-13T12:51:34Z</time></trkpt>
<trkpt lat="43.20346800" lon="5.50881400"><ele>46</ele><time>2007-08-13T12:51:34Z</time></trkpt>
<trkpt lat="43.20341500" lon="5.50870700"><ele>51</ele><time>2007-08-13T12:51:34Z</time></trkpt>
<trkpt lat="43.20335600" lon="5.50858200"><ele>57</ele><time>2007-08-13T12:51:34Z</time></trkpt>
<trkpt lat="43.20329900" lon="5.50836900"><ele>62</ele><time>2007-08-13T12:51:34Z</time></trkpt>
<trkpt lat="43.20332000" lon="5.50813300"><ele>69</ele><time>2007-08-13T12:51:34Z</time></trkpt>
<trkpt lat="43.20337600" lon="5.50775100"><ele>76</ele><time>2007-08-13T12:51:34Z</time></trkpt>
<trkpt lat="43.20342900" lon="5.50751400"><ele>78</ele><time>2007-08-13T12:51:34Z</time></trkpt>
<trkpt lat="43.20348200" lon="5.50717600"><ele>83</ele><time>2007-08-13T12:51:34Z</time></trkpt>
<trkpt lat="43.20351300" lon="5.50692000"><ele>87</ele><time>2007-08-13T12:51:34Z</time></trkpt>
<trkpt lat="43.20354500" lon="5.50665900"><ele>91</ele><time>2007-08-13T12:51:34Z</time></trkpt>
<trkpt lat="43.20359400" lon="5.50645100"><ele>93</ele><time>2007-08-13T12:51:34Z</time></trkpt>
<trkpt lat="43.20362600" lon="5.50625300"><ele>96</ele><time>2007-08-13T12:51:34Z</time></trkpt>
<trkpt lat="43.20362600" lon="5.50612300"><ele>97</ele><time>2007-08-13T12:51:34Z</time></trkpt>
<trkpt lat="43.20360300" lon="5.50590200"><ele>100</ele><time>2007-08-13T12:51:34Z</time></trkpt>
<trkpt lat="43.20365000" lon="5.50576100"><ele>101</ele><time>2007-08-13T12:51:34Z</time></trkpt>
<trkpt lat="43.20376600" lon="5.50567200"><ele>102</ele><time>2007-08-13T12:51:34Z</time></trkpt>
<trkpt lat="43.20385000" lon="5.50551900"><ele>104</ele><time>2007-08-13T12:51:34Z</time></trkpt>
<trkpt lat="43.20387700" lon="5.50529500"><ele>107</ele><time>2007-08-13T12:51:34Z</time></trkpt>
<trkpt lat="43.20388200" lon="5.50511000"><ele>110</ele><time>2007-08-13T12:51:34Z</time></trkpt>
<trkpt lat="43.20393300" lon="5.50495700"><ele>112</ele><time>2007-08-13T12:51:34Z</time></trkpt>
<trkpt lat="43.20394200" lon="5.50482300"><ele>114</ele><time>2007-08-13T12:51:34Z</time></trkpt>
<trkpt lat="43.20389100" lon="5.50468300"><ele>116</ele><time>2007-08-13T12:51:34Z</time></trkpt>
<trkpt lat="43.20385800" lon="5.50453600"><ele>118</ele><time>2007-08-13T12:51:34Z</time></trkpt>
<trkpt lat="43.20381200" lon="5.50432600"><ele>119</ele><time>2007-08-13T12:51:34Z</time></trkpt>
<trkpt lat="43.20375600" lon="5.50416000"><ele>120</ele><time>2007-08-13T12:51:34Z</time></trkpt>
<trkpt lat="43.20370900" lon="5.50398200"><ele>121</ele><time>2007-08-13T12:51:34Z</time></trkpt>
<trkpt lat="43.20366700" lon="5.50388000"><ele>121</ele><time>2007-08-13T12:51:34Z</time></trkpt>
<trkpt lat="43.20361600" lon="5.50371400"><ele>122</ele><time>2007-08-13T12:51:34Z</time></trkpt>
<trkpt lat="43.20356500" lon="5.50351600"><ele>123</ele><time>2007-08-13T12:51:34Z</time></trkpt>
<trkpt lat="43.20351400" lon="5.50331200"><ele>124</ele><time>2007-08-13T12:51:34Z</time></trkpt>
<trkpt lat="43.20347200" lon="5.50311400"><ele>125</ele><time>2007-08-13T12:51:34Z</time></trkpt>
<trkpt lat="43.20343400" lon="5.50293600"><ele>126</ele><time>2007-08-13T12:51:34Z</time></trkpt>
<trkpt lat="43.20341100" lon="5.50272500"><ele>128</ele><time>2007-08-13T12:51:34Z</time></trkpt>
<trkpt lat="43.20342500" lon="5.50255300"><ele>130</ele><time>2007-08-13T12:51:34Z</time></trkpt>
<trkpt lat="43.20340200" lon="5.50233000"><ele>131</ele><time>2007-08-13T12:51:34Z</time></trkpt>
<trkpt lat="43.20337800" lon="5.50211300"><ele>132</ele><time>2007-08-13T12:51:34Z</time></trkpt>
<trkpt lat="43.20338300" lon="5.50196600"><ele>133</ele><time>2007-08-13T12:51:34Z</time></trkpt>
<trkpt lat="43.20340200" lon="5.50186500"><ele>132</ele><time>2007-08-13T12:51:34Z</time></trkpt>
<trkpt lat="43.20342000" lon="5.50174600"><ele>132</ele><time>2007-08-13T12:51:34Z</time></trkpt>
<trkpt lat="43.20334800" lon="5.50169000"><ele>131</ele><time>2007-08-13T12:51:34Z</time></trkpt>
<trkpt lat="43.20330500" lon="5.50158800"><ele>129</ele><time>2007-08-13T12:51:34Z</time></trkpt>
<trkpt lat="43.20327400" lon="5.50148700"><ele>128</ele><time>2007-08-13T12:51:34Z</time></trkpt>
<trkpt lat="43.20328200" lon="5.50139600"><ele>128</ele><time>2007-08-13T12:51:34Z</time></trkpt>
<trkpt lat="43.20332800" lon="5.50129100"><ele>128</ele><time>2007-08-13T12:51:34Z</time></trkpt>
<trkpt lat="43.20333800" lon="5.50113300"><ele>126</ele><time>2007-08-13T12:51:34Z</time></trkpt>
<trkpt lat="43.20331200" lon="5.50100700"><ele>124</ele><time>2007-08-13T12:51:34Z</time></trkpt>
<trkpt lat="43.20327900" lon="5.50092700"><ele>122</ele><time>2007-08-13T12:51:34Z</time></trkpt>
<trkpt lat="43.20324800" lon="5.50080100"><ele>120</ele><time>2007-08-13T12:51:34Z</time></trkpt>
<trkpt lat="43.20321300" lon="5.50066400"><ele>118</ele><time>2007-08-13T12:51:34Z</time></trkpt>
<trkpt lat="43.20318200" lon="5.50058000"><ele>118</ele><time>2007-08-13T12:51:34Z</time></trkpt>
<trkpt lat="43.20313600" lon="5.50048900"><ele>118</ele><time>2007-08-13T12:51:34Z</time></trkpt>
<trkpt lat="43.20306700" lon="5.50042600"><ele>115</ele><time>2007-08-13T12:51:34Z</time></trkpt>
<trkpt lat="43.20299600" lon="5.50037400"><ele>113</ele><time>2007-08-13T12:51:34Z</time></trkpt>
<trkpt lat="43.20288600" lon="5.50029000"><ele>109</ele><time>2007-08-13T12:51:34Z</time></trkpt>
<trkpt lat="43.20283200" lon="5.50013600"><ele>109</ele><time>2007-08-13T12:51:34Z</time></trkpt>
<trkpt lat="43.20278100" lon="5.49994000"><ele>103</ele><time>2007-08-13T12:51:34Z</time></trkpt>
<trkpt lat="43.20273500" lon="5.49974400"><ele>94</ele><time>2007-08-13T12:51:34Z</time></trkpt>
<trkpt lat="43.20274000" lon="5.49954100"><ele>86</ele><time>2007-08-13T12:51:34Z</time></trkpt>
<trkpt lat="43.20272200" lon="5.49938700"><ele>78</ele><time>2007-08-13T12:51:34Z</time></trkpt>
<trkpt lat="43.20270900" lon="5.49919800"><ele>64</ele><time>2007-08-13T12:51:34Z</time></trkpt>
<trkpt lat="43.20271400" lon="5.49908700"><ele>56</ele><time>2007-08-13T12:51:34Z</time></trkpt>
<trkpt lat="43.20272700" lon="5.49894000"><ele>47</ele><time>2007-08-13T12:51:34Z</time></trkpt>
<trkpt lat="43.20272700" lon="5.49879600"><ele>39</ele><time>2007-08-13T12:51:34Z</time></trkpt>
<trkpt lat="43.20272700" lon="5.49868400"><ele>35</ele><time>2007-08-13T12:51:34Z</time></trkpt>
<trkpt lat="43.20268100" lon="5.49858300"><ele>30</ele><time>2007-08-13T12:51:34Z</time></trkpt>
<trkpt lat="43.20264500" lon="5.49850900"><ele>26</ele><time>2007-08-13T12:51:34Z</time></trkpt>
<trkpt lat="43.20258400" lon="5.49840100"><ele>20</ele><time>2007-08-13T12:51:34Z</time></trkpt>
<trkpt lat="43.20255500" lon="5.49827800"><ele>15</ele><time>2007-08-13T12:51:34Z</time></trkpt>
<trkpt lat="43.20252500" lon="5.49809300"><ele>14</ele><time>2007-08-13T12:51:34Z</time></trkpt>
<trkpt lat="43.20251200" lon="5.49793200"><ele>16</ele><time>2007-08-13T12:51:34Z</time></trkpt>
<trkpt lat="43.20250700" lon="5.49779200"><ele>18</ele><time>2007-08-13T12:51:34Z</time></trkpt>
<trkpt lat="43.20253200" lon="5.49763800"><ele>21</ele><time>2007-08-13T12:51:34Z</time></trkpt>
<trkpt lat="43.20255500" lon="5.49748100"><ele>22</ele><time>2007-08-13T12:51:34Z</time></trkpt>
<trkpt lat="43.20258000" lon="5.49733700"><ele>22</ele><time>2007-08-13T12:51:34Z</time></trkpt>
<trkpt lat="43.20261800" lon="5.49716600"><ele>20</ele><time>2007-08-13T12:51:34Z</time></trkpt>
<trkpt lat="43.20267700" lon="5.49705700"><ele>17</ele><time>2007-08-13T12:51:34Z</time></trkpt>
<trkpt lat="43.20274600" lon="5.49698700"><ele>12</ele><time>2007-08-13T12:51:34Z</time></trkpt>
<trkpt lat="43.20283300" lon="5.49693500"><ele>13</ele><time>2007-08-13T12:51:34Z</time></trkpt>
<trkpt lat="43.20292700" lon="5.49689200"><ele>18</ele><time>2007-08-13T12:51:34Z</time></trkpt>
<trkpt lat="43.20301900" lon="5.49684000"><ele>22</ele><time>2007-08-13T12:51:34Z</time></trkpt>
<trkpt lat="43.20312900" lon="5.49678400"><ele>25</ele><time>2007-08-13T12:51:34Z</time></trkpt>
<trkpt lat="43.20324600" lon="5.49673100"><ele>26</ele><time>2007-08-13T12:51:34Z</time></trkpt>
<trkpt lat="43.20336600" lon="5.49669600"><ele>26</ele><time>2007-08-13T12:51:34Z</time></trkpt>
<trkpt lat="43.20347800" lon="5.49666100"><ele>25</ele><time>2007-08-13T12:51:34Z</time></trkpt>
<trkpt lat="43.20359000" lon="5.49661200"><ele>23</ele><time>2007-08-13T12:51:34Z</time></trkpt>
<trkpt lat="43.20368500" lon="5.49658000"><ele>22</ele><time>2007-08-13T12:51:34Z</time></trkpt>
<trkpt lat="43.20377200" lon="5.49654100"><ele>20</ele><time>2007-08-13T12:51:34Z</time></trkpt>
<trkpt lat="43.20384500" lon="5.49651300"><ele>19</ele><time>2007-08-13T12:51:34Z</time></trkpt>
<trkpt lat="43.20396800" lon="5.49647100"><ele>17</ele><time>2007-08-13T12:51:34Z</time></trkpt>
<trkpt lat="43.20404700" lon="5.49642900"><ele>16</ele><time>2007-08-13T12:51:34Z</time></trkpt>
<trkpt lat="43.20414300" lon="5.49637300"><ele>19</ele><time>2007-08-13T12:51:34Z</time></trkpt>
<trkpt lat="43.20423800" lon="5.49637700"><ele>20</ele><time>2007-08-13T12:51:34Z</time></trkpt>
<trkpt lat="43.20432400" lon="5.49641200"><ele>20</ele><time>2007-08-13T12:51:34Z</time></trkpt>
<trkpt lat="43.20440900" lon="5.49648100"><ele>18</ele><time>2007-08-13T12:51:34Z</time></trkpt>
<trkpt lat="43.20448800" lon="5.49652000"><ele>21</ele><time>2007-08-13T12:51:34Z</time></trkpt>
<trkpt lat="43.20456400" lon="5.49652000"><ele>21</ele><time>2007-08-13T12:51:34Z</time></trkpt>
<trkpt lat="43.20464900" lon="5.49649200"><ele>20</ele><time>2007-08-13T12:51:34Z</time></trkpt>
<trkpt lat="43.20471200" lon="5.49647400"><ele>20</ele><time>2007-08-13T12:51:34Z</time></trkpt>
<trkpt lat="43.20481700" lon="5.49648400"><ele>20</ele><time>2007-08-13T12:51:34Z</time></trkpt>
<trkpt lat="43.20493400" lon="5.49656100"><ele>22</ele><time>2007-08-13T12:51:34Z</time></trkpt>
<trkpt lat="43.20501900" lon="5.49657200"><ele>22</ele><time>2007-08-13T12:51:34Z</time></trkpt>
<trkpt lat="43.20512800" lon="5.49661000"><ele>25</ele><time>2007-08-13T12:51:34Z</time></trkpt>
<trkpt lat="43.20522300" lon="5.49658900"><ele>24</ele><time>2007-08-13T12:51:34Z</time></trkpt>
<trkpt lat="43.20535900" lon="5.49654700"><ele>24</ele><time>2007-08-13T12:51:34Z</time></trkpt>
<trkpt lat="43.20545100" lon="5.49651700"><ele>24</ele><time>2007-08-13T12:51:34Z</time></trkpt>
<trkpt lat="43.20559900" lon="5.49652400"><ele>32</ele><time>2007-08-13T12:51:34Z</time></trkpt>
<trkpt lat="43.20572400" lon="5.49662900"><ele>41</ele><time>2007-08-13T12:51:34Z</time></trkpt>
<trkpt lat="43.20578900" lon="5.49677100"><ele>45</ele><time>2007-08-13T12:51:34Z</time></trkpt>
<trkpt lat="43.20589800" lon="5.49695700"><ele>44</ele><time>2007-08-13T12:51:34Z</time></trkpt>
<trkpt lat="43.20604600" lon="5.49715900"><ele>38</ele><time>2007-08-13T12:51:34Z</time></trkpt>
<trkpt lat="43.20617600" lon="5.49731600"><ele>41</ele><time>2007-08-13T12:51:34Z</time></trkpt>
<trkpt lat="43.20632900" lon="5.49736800"><ele>37</ele><time>2007-08-13T12:51:34Z</time></trkpt>
<trkpt lat="43.20644900" lon="5.49733800"><ele>38</ele><time>2007-08-13T12:51:34Z</time></trkpt>
<trkpt lat="43.20653600" lon="5.49730000"><ele>42</ele><time>2007-08-13T12:51:34Z</time></trkpt>
<trkpt lat="43.20659100" lon="5.49737500"><ele>45</ele><time>2007-08-13T12:51:34Z</time></trkpt>
<trkpt lat="43.20658000" lon="5.49756900"><ele>45</ele><time>2007-08-13T12:51:34Z</time></trkpt>
<trkpt lat="43.20659600" lon="5.49773400"><ele>46</ele><time>2007-08-13T12:51:34Z</time></trkpt>
<trkpt lat="43.20660200" lon="5.49795100"><ele>46</ele><time>2007-08-13T12:51:34Z</time></trkpt>
<trkpt lat="43.20653700" lon="5.49817500"><ele>42</ele><time>2007-08-13T12:51:34Z</time></trkpt>
<trkpt lat="43.20648200" lon="5.49833900"><ele>39</ele><time>2007-08-13T12:51:34Z</time></trkpt>
<trkpt lat="43.20639500" lon="5.49851100"><ele>38</ele><time>2007-08-13T12:51:34Z</time></trkpt>
<trkpt lat="43.20632400" lon="5.49866100"><ele>38</ele><time>2007-08-13T12:51:34Z</time></trkpt>
<trkpt lat="43.20626400" lon="5.49884000"><ele>40</ele><time>2007-08-13T12:51:34Z</time></trkpt>
<trkpt lat="43.20622100" lon="5.49905000"><ele>41</ele><time>2007-08-13T12:51:34Z</time></trkpt>
<trkpt lat="43.20627000" lon="5.49916900"><ele>41</ele><time>2007-08-13T12:51:34Z</time></trkpt>
<trkpt lat="43.20635700" lon="5.49922100"><ele>41</ele><time>2007-08-13T12:51:34Z</time></trkpt>
<trkpt lat="43.20648300" lon="5.49920600"><ele>47</ele><time>2007-08-13T12:51:34Z</time></trkpt>
<trkpt lat="43.20659200" lon="5.49910900"><ele>49</ele><time>2007-08-13T12:51:34Z</time></trkpt>
<trkpt lat="43.20670600" lon="5.49903400"><ele>50</ele><time>2007-08-13T12:51:34Z</time></trkpt>
<trkpt lat="43.20679800" lon="5.49893700"><ele>53</ele><time>2007-08-13T12:51:34Z</time></trkpt>
<trkpt lat="43.20690200" lon="5.49873500"><ele>53</ele><time>2007-08-13T12:51:34Z</time></trkpt>
<trkpt lat="43.20701600" lon="5.49861500"><ele>53</ele><time>2007-08-13T12:51:34Z</time></trkpt>
<trkpt lat="43.20715800" lon="5.49854100"><ele>53</ele><time>2007-08-13T12:51:34Z</time></trkpt>
<trkpt lat="43.20729400" lon="5.49844300"><ele>55</ele><time>2007-08-13T12:51:34Z</time></trkpt>
<trkpt lat="43.20744100" lon="5.49831600"><ele>65</ele><time>2007-08-13T12:51:34Z</time></trkpt>
<trkpt lat="43.20757700" lon="5.49818700"><ele>68</ele><time>2007-08-13T12:51:34Z</time></trkpt>
<trkpt lat="43.20775700" lon="5.49806800"><ele>66</ele><time>2007-08-13T12:51:34Z</time></trkpt>
<trkpt lat="43.20789800" lon="5.49793300"><ele>62</ele><time>2007-08-13T12:51:34Z</time></trkpt>
<trkpt lat="43.20802900" lon="5.49781300"><ele>63</ele><time>2007-08-13T12:51:34Z</time></trkpt>
<trkpt lat="43.20819200" lon="5.49764100"><ele>63</ele><time>2007-08-13T12:51:34Z</time></trkpt>
<trkpt lat="43.20832800" lon="5.49753600"><ele>63</ele><time>2007-08-13T12:51:34Z</time></trkpt>
<trkpt lat="43.20849700" lon="5.49741600"><ele>60</ele><time>2007-08-13T12:51:34Z</time></trkpt>
<trkpt lat="43.20865500" lon="5.49731200"><ele>57</ele><time>2007-08-13T12:51:34Z</time></trkpt>
<trkpt lat="43.20881800" lon="5.49723700"><ele>66</ele><time>2007-08-13T12:51:34Z</time></trkpt>
<trkpt lat="43.20899300" lon="5.49715400"><ele>72</ele><time>2007-08-13T12:51:34Z</time></trkpt>
<trkpt lat="43.20916200" lon="5.49709400"><ele>76</ele><time>2007-08-13T12:51:34Z</time></trkpt>
<trkpt lat="43.20936900" lon="5.49707200"><ele>78</ele><time>2007-08-13T12:51:34Z</time></trkpt>
<trkpt lat="43.20952100" lon="5.49701200"><ele>76</ele><time>2007-08-13T12:51:34Z</time></trkpt>
<trkpt lat="43.20969000" lon="5.49695200"><ele>77</ele><time>2007-08-13T12:51:34Z</time></trkpt>
<trkpt lat="43.20986400" lon="5.49696700"><ele>81</ele><time>2007-08-13T12:51:34Z</time></trkpt>
<trkpt lat="43.21001100" lon="5.49698100"><ele>84</ele><time>2007-08-13T12:51:34Z</time></trkpt>
<trkpt lat="43.21013700" lon="5.49691400"><ele>79</ele><time>2007-08-13T12:51:34Z</time></trkpt>
<trkpt lat="43.21026200" lon="5.49681700"><ele>73</ele><time>2007-08-13T12:51:34Z</time></trkpt>
<trkpt lat="43.21038700" lon="5.49671200"><ele>76</ele><time>2007-08-13T12:51:34Z</time></trkpt>
<trkpt lat="43.21049100" lon="5.49665200"><ele>78</ele><time>2007-08-13T12:51:34Z</time></trkpt>
<trkpt lat="43.21058900" lon="5.49666700"><ele>78</ele><time>2007-08-13T12:51:34Z</time></trkpt>
<trkpt lat="43.21073100" lon="5.49671500"><ele>77</ele><time>2007-08-13T12:51:34Z</time></trkpt>
<trkpt lat="43.21089500" lon="5.49682000"><ele>74</ele><time>2007-08-13T12:51:34Z</time></trkpt>
<trkpt lat="43.21102000" lon="5.49691700"><ele>78</ele><time>2007-08-13T12:51:34Z</time></trkpt>
<trkpt lat="43.21113500" lon="5.49706600"><ele>81</ele><time>2007-08-13T12:51:34Z</time></trkpt>
<trkpt lat="43.21128200" lon="5.49717800"><ele>82</ele><time>2007-08-13T12:51:34Z</time></trkpt>
<trkpt lat="43.21145100" lon="5.49720800"><ele>82</ele><time>2007-08-13T12:51:34Z</time></trkpt>
<trkpt lat="43.21155400" lon="5.49715500"><ele>81</ele><time>2007-08-13T12:51:34Z</time></trkpt>
<trkpt lat="43.21163600" lon="5.49709500"><ele>81</ele><time>2007-08-13T12:51:34Z</time></trkpt>
<trkpt lat="43.21175000" lon="5.49716300"><ele>81</ele><time>2007-08-13T12:51:34Z</time></trkpt>
<trkpt lat="43.21184800" lon="5.49726000"><ele>82</ele><time>2007-08-13T12:51:34Z</time></trkpt>
<trkpt lat="43.21190800" lon="5.49738700"><ele>83</ele><time>2007-08-13T12:51:34Z</time></trkpt>
<trkpt lat="43.21191400" lon="5.49752100"><ele>83</ele><time>2007-08-13T12:51:34Z</time></trkpt>
<trkpt lat="43.21184300" lon="5.49769300"><ele>83</ele><time>2007-08-13T12:51:34Z</time></trkpt>
<trkpt lat="43.21170100" lon="5.49779800"><ele>83</ele><time>2007-08-13T12:51:34Z</time></trkpt>
<trkpt lat="43.21163100" lon="5.49787300"><ele>85</ele><time>2007-08-13T12:51:34Z</time></trkpt>
<trkpt lat="43.21160900" lon="5.49803000"><ele>86</ele><time>2007-08-13T12:51:34Z</time></trkpt>
<trkpt lat="43.21160400" lon="5.49825400"><ele>90</ele><time>2007-08-13T12:51:34Z</time></trkpt>
<trkpt lat="43.21163100" lon="5.49839600"><ele>92</ele><time>2007-08-13T12:51:34Z</time></trkpt>
<trkpt lat="43.21172400" lon="5.49852300"><ele>92</ele><time>2007-08-13T12:51:34Z</time></trkpt>
<trkpt lat="43.21186500" lon="5.49853000"><ele>94</ele><time>2007-08-13T12:51:34Z</time></trkpt>
<trkpt lat="43.21199600" lon="5.49860500"><ele>96</ele><time>2007-08-13T12:51:34Z</time></trkpt>
<trkpt lat="43.21209400" lon="5.49878400"><ele>99</ele><time>2007-08-13T12:51:34Z</time></trkpt>
<trkpt lat="43.21213800" lon="5.49897100"><ele>99</ele><time>2007-08-13T12:51:34Z</time></trkpt>
<trkpt lat="43.21223600" lon="5.49919500"><ele>101</ele><time>2007-08-13T12:51:34Z</time></trkpt>
<trkpt lat="43.21234500" lon="5.49938200"><ele>104</ele><time>2007-08-13T12:51:34Z</time></trkpt>
<trkpt lat="43.21239400" lon="5.49960600"><ele>106</ele><time>2007-08-13T12:51:34Z</time></trkpt>
<trkpt lat="43.21250900" lon="5.49974800"><ele>106</ele><time>2007-08-13T12:51:34Z</time></trkpt>
<trkpt lat="43.21262300" lon="5.49989000"><ele>103</ele><time>2007-08-13T12:51:34Z</time></trkpt>
<trkpt lat="43.21278100" lon="5.50003900"><ele>103</ele><time>2007-08-13T12:51:34Z</time></trkpt>
<trkpt lat="43.21298300" lon="5.50011400"><ele>107</ele><time>2007-08-13T12:51:34Z</time></trkpt>
<trkpt lat="43.21317400" lon="5.50017400"><ele>111</ele><time>2007-08-13T12:51:34Z</time></trkpt>
<trkpt lat="43.21329900" lon="5.50021800"><ele>113</ele><time>2007-08-13T12:51:34Z</time></trkpt>
<trkpt lat="43.21342200" lon="5.50028200"><ele>116</ele><time>2007-08-13T12:51:34Z</time></trkpt>
<trkpt lat="43.21354700" lon="5.50032600"><ele>117</ele><time>2007-08-13T12:51:34Z</time></trkpt>
<trkpt lat="43.21364500" lon="5.50025900"><ele>114</ele><time>2007-08-13T12:51:34Z</time></trkpt>
<trkpt lat="43.21372700" lon="5.50011700"><ele>110</ele><time>2007-08-13T12:51:34Z</time></trkpt>
<trkpt lat="43.21378100" lon="5.49996700"><ele>112</ele><time>2007-08-13T12:51:34Z</time></trkpt>
<trkpt lat="43.21386800" lon="5.49985500"><ele>116</ele><time>2007-08-13T12:51:34Z</time></trkpt>
<trkpt lat="43.21403200" lon="5.49984700"><ele>120</ele><time>2007-08-13T12:51:34Z</time></trkpt>
<trkpt lat="43.21417900" lon="5.49993700"><ele>122</ele><time>2007-08-13T12:51:34Z</time></trkpt>
<trkpt lat="43.21425500" lon="5.50013100"><ele>122</ele><time>2007-08-13T12:51:34Z</time></trkpt>
<trkpt lat="43.21428200" lon="5.50034800"><ele>126</ele><time>2007-08-13T12:51:34Z</time></trkpt>
<trkpt lat="43.21422800" lon="5.50058700"><ele>128</ele><time>2007-08-13T12:51:34Z</time></trkpt>
<trkpt lat="43.21415700" lon="5.50080400"><ele>126</ele><time>2007-08-13T12:51:34Z</time></trkpt>
<trkpt lat="43.21407000" lon="5.50098400"><ele>122</ele><time>2007-08-13T12:51:34Z</time></trkpt>
<trkpt lat="43.21407600" lon="5.50120800"><ele>123</ele><time>2007-08-13T12:51:34Z</time></trkpt>
<trkpt lat="43.21418500" lon="5.50141700"><ele>126</ele><time>2007-08-13T12:51:34Z</time></trkpt>
<trkpt lat="43.21431000" lon="5.50156600"><ele>128</ele><time>2007-08-13T12:51:34Z</time></trkpt>
<trkpt lat="43.21444100" lon="5.50170100"><ele>130</ele><time>2007-08-13T12:51:34Z</time></trkpt>
<trkpt lat="43.21462600" lon="5.50176800"><ele>133</ele><time>2007-08-13T12:51:34Z</time></trkpt>
<trkpt lat="43.21474100" lon="5.50166300"><ele>133</ele><time>2007-08-13T12:51:34Z</time></trkpt>
<trkpt lat="43.21483300" lon="5.50151400"><ele>131</ele><time>2007-08-13T12:51:34Z</time></trkpt>
<trkpt lat="43.21498000" lon="5.50139400"><ele>132</ele><time>2007-08-13T12:51:34Z</time></trkpt>
<trkpt lat="43.21509500" lon="5.50142400"><ele>135</ele><time>2007-08-13T12:51:34Z</time></trkpt>
<trkpt lat="43.21517700" lon="5.50164000"><ele>136</ele><time>2007-08-13T12:51:34Z</time></trkpt>
<trkpt lat="43.21528000" lon="5.50190200"><ele>135</ele><time>2007-08-13T12:51:34Z</time></trkpt>
<trkpt lat="43.21538400" lon="5.50202100"><ele>136</ele><time>2007-08-13T12:51:34Z</time></trkpt>
<trkpt lat="43.21547100" lon="5.50190900"><ele>135</ele><time>2007-08-13T12:51:34Z</time></trkpt>
<trkpt lat="43.21558500" lon="5.50181900"><ele>137</ele><time>2007-08-13T12:51:34Z</time></trkpt>
<trkpt lat="43.21572700" lon="5.50177400"><ele>139</ele><time>2007-08-13T12:51:34Z</time></trkpt>
<trkpt lat="43.21586900" lon="5.50179700"><ele>142</ele><time>2007-08-13T12:51:34Z</time></trkpt>
<trkpt lat="43.21602700" lon="5.50184100"><ele>145</ele><time>2007-08-13T12:51:34Z</time></trkpt>
<trkpt lat="43.21615200" lon="5.50187900"><ele>148</ele><time>2007-08-13T12:51:34Z</time></trkpt>
<trkpt lat="43.21618600" lon="5.50202900"><ele>147</ele><time>2007-08-13T12:51:34Z</time></trkpt>
<trkpt lat="43.21615900" lon="5.50224600"><ele>146</ele><time>2007-08-13T12:51:34Z</time></trkpt>
<trkpt lat="43.21613200" lon="5.50244800"><ele>146</ele><time>2007-08-13T12:51:34Z</time></trkpt>
<trkpt lat="43.21612700" lon="5.50262700"><ele>146</ele><time>2007-08-13T12:51:34Z</time></trkpt>
<trkpt lat="43.21611100" lon="5.50282900"><ele>148</ele><time>2007-08-13T12:51:34Z</time></trkpt>
<trkpt lat="43.21602300" lon="5.50299400"><ele>149</ele><time>2007-08-13T12:51:34Z</time></trkpt>
<trkpt lat="43.21591500" lon="5.50312800"><ele>149</ele><time>2007-08-13T12:51:34Z</time></trkpt>
<trkpt lat="43.21588700" lon="5.50323300"><ele>150</ele><time>2007-08-13T12:51:34Z</time></trkpt>
<trkpt lat="43.21594700" lon="5.50339700"><ele>151</ele><time>2007-08-13T12:51:34Z</time></trkpt>
<trkpt lat="43.21598600" lon="5.50353900"><ele>151</ele><time>2007-08-13T12:51:34Z</time></trkpt>
<trkpt lat="43.21605100" lon="5.50368100"><ele>151</ele><time>2007-08-13T12:51:34Z</time></trkpt>
<trkpt lat="43.21614400" lon="5.50386100"><ele>150</ele><time>2007-08-13T12:51:34Z</time></trkpt>
<trkpt lat="43.21624700" lon="5.50396500"><ele>152</ele><time>2007-08-13T12:51:34Z</time></trkpt>
<trkpt lat="43.21638400" lon="5.50399500"><ele>153</ele><time>2007-08-13T12:51:34Z</time></trkpt>
<trkpt lat="43.21653100" lon="5.50392800"><ele>152</ele><time>2007-08-13T12:51:34Z</time></trkpt>
<trkpt lat="43.21666100" lon="5.50389800"><ele>154</ele><time>2007-08-13T12:51:34Z</time></trkpt>
<trkpt lat="43.21680300" lon="5.50392700"><ele>157</ele><time>2007-08-13T12:51:34Z</time></trkpt>
<trkpt lat="43.21685800" lon="5.50400900"><ele>158</ele><time>2007-08-13T12:51:34Z</time></trkpt>
<trkpt lat="43.21687400" lon="5.50418100"><ele>159</ele><time>2007-08-13T12:51:34Z</time></trkpt>
<trkpt lat="43.21690100" lon="5.50433800"><ele>159</ele><time>2007-08-13T12:51:34Z</time></trkpt>
<trkpt lat="43.21698900" lon="5.50451000"><ele>158</ele><time>2007-08-13T12:51:34Z</time></trkpt>
<trkpt lat="43.21711900" lon="5.50449500"><ele>158</ele><time>2007-08-13T12:51:34Z</time></trkpt>
<trkpt lat="43.21720600" lon="5.50445800"><ele>158</ele><time>2007-08-13T12:51:34Z</time></trkpt>
<trkpt lat="43.21724300" lon="5.50457700"><ele>158</ele><time>2007-08-13T12:51:34Z</time></trkpt>
<trkpt lat="43.21733500" lon="5.50468900"><ele>159</ele><time>2007-08-13T12:51:34Z</time></trkpt>
<trkpt lat="43.21746100" lon="5.50477900"><ele>161</ele><time>2007-08-13T12:51:34Z</time></trkpt>
<trkpt lat="43.21755900" lon="5.50480900"><ele>163</ele><time>2007-08-13T12:51:34Z</time></trkpt>
<trkpt lat="43.21764600" lon="5.50492800"><ele>164</ele><time>2007-08-13T12:51:34Z</time></trkpt>
<trkpt lat="43.21771200" lon="5.50513800"><ele>163</ele><time>2007-08-13T12:51:34Z</time></trkpt>
<trkpt lat="43.21779900" lon="5.50530200"><ele>163</ele><time>2007-08-13T12:51:34Z</time></trkpt>
<trkpt lat="43.21789700" lon="5.50545100"><ele>165</ele><time>2007-08-13T12:51:34Z</time></trkpt>
<trkpt lat="43.21799500" lon="5.50554100"><ele>167</ele><time>2007-08-13T12:51:34Z</time></trkpt>
<trkpt lat="43.21811500" lon="5.50568300"><ele>168</ele><time>2007-08-13T12:51:34Z</time></trkpt>
<trkpt lat="43.21815900" lon="5.50596000"><ele>169</ele><time>2007-08-13T12:51:34Z</time></trkpt>
<trkpt lat="43.21811500" lon="5.50614600"><ele>171</ele><time>2007-08-13T12:51:34Z</time></trkpt>
<trkpt lat="43.21815300" lon="5.50631100"><ele>173</ele><time>2007-08-13T12:51:34Z</time></trkpt>
<trkpt lat="43.21818100" lon="5.50647500"><ele>174</ele><time>2007-08-13T12:51:34Z</time></trkpt>
<trkpt lat="43.21818600" lon="5.50660200"><ele>176</ele><time>2007-08-13T12:51:34Z</time></trkpt>
<trkpt lat="43.21817500" lon="5.50674400"><ele>178</ele><time>2007-08-13T12:51:34Z</time></trkpt>
<trkpt lat="43.21817500" lon="5.50689400"><ele>179</ele><time>2007-08-13T12:51:34Z</time></trkpt>
<trkpt lat="43.21817000" lon="5.50702900"><ele>181</ele><time>2007-08-13T12:51:34Z</time></trkpt>
<trkpt lat="43.21816500" lon="5.50717100"><ele>183</ele><time>2007-08-13T12:51:34Z</time></trkpt>
<trkpt lat="43.21817000" lon="5.50729800"><ele>185</ele><time>2007-08-13T12:51:34Z</time></trkpt>
<trkpt lat="43.21813900" lon="5.50745900"><ele>187</ele><time>2007-08-13T12:51:34Z</time></trkpt>
<trkpt lat="43.21801400" lon="5.50757100"><ele>189</ele><time>2007-08-13T12:51:34Z</time></trkpt>
<trkpt lat="43.21793200" lon="5.50760900"><ele>189</ele><time>2007-08-13T12:51:34Z</time></trkpt>
<trkpt lat="43.21779600" lon="5.50782600"><ele>191</ele><time>2007-08-13T12:51:34Z</time></trkpt>
<trkpt lat="43.21766000" lon="5.50802000"><ele>192</ele><time>2007-08-13T12:51:34Z</time></trkpt>
<trkpt lat="43.21756200" lon="5.50816200"><ele>193</ele><time>2007-08-13T12:51:34Z</time></trkpt>
<trkpt lat="43.21743100" lon="5.50829700"><ele>193</ele><time>2007-08-13T12:51:34Z</time></trkpt>
<trkpt lat="43.21735500" lon="5.50840900"><ele>193</ele><time>2007-08-13T12:51:34Z</time></trkpt>
<trkpt lat="43.21726800" lon="5.50853600"><ele>193</ele><time>2007-08-13T12:51:34Z</time></trkpt>
<trkpt lat="43.21716400" lon="5.50875300"><ele>193</ele><time>2007-08-13T12:51:34Z</time></trkpt>
<trkpt lat="43.21705500" lon="5.50885800"><ele>193</ele><time>2007-08-13T12:51:34Z</time></trkpt>
<trkpt lat="43.21700600" lon="5.50897000"><ele>192</ele><time>2007-08-13T12:51:34Z</time></trkpt>
<trkpt lat="43.21718600" lon="5.50916400"><ele>192</ele><time>2007-08-13T12:51:34Z</time></trkpt>
<trkpt lat="43.21727400" lon="5.50926900"><ele>193</ele><time>2007-08-13T12:51:34Z</time></trkpt>
<trkpt lat="43.21741000" lon="5.50944100"><ele>193</ele><time>2007-08-13T12:51:34Z</time></trkpt>
<trkpt lat="43.21744800" lon="5.50959800"><ele>193</ele><time>2007-08-13T12:51:34Z</time></trkpt>
<trkpt lat="43.21744800" lon="5.50976200"><ele>192</ele><time>2007-08-13T12:51:34Z</time></trkpt>
<trkpt lat="43.21738300" lon="5.50991900"><ele>191</ele><time>2007-08-13T12:51:34Z</time></trkpt>
<trkpt lat="43.21726300" lon="5.51008400"><ele>188</ele><time>2007-08-13T12:51:34Z</time></trkpt>
<trkpt lat="43.21716000" lon="5.51022600"><ele>186</ele><time>2007-08-13T12:51:34Z</time></trkpt>
<trkpt lat="43.21705600" lon="5.51036800"><ele>184</ele><time>2007-08-13T12:51:34Z</time></trkpt>
<trkpt lat="43.21703400" lon="5.51050300"><ele>183</ele><time>2007-08-13T12:51:34Z</time></trkpt>
<trkpt lat="43.21707400" lon="5.51069000"><ele>182</ele><time>2007-08-13T12:51:34Z</time></trkpt>
<trkpt lat="43.21711200" lon="5.51085400"><ele>183</ele><time>2007-08-13T12:51:34Z</time></trkpt>
<trkpt lat="43.21710700" lon="5.51099600"><ele>183</ele><time>2007-08-13T12:51:34Z</time></trkpt>
<trkpt lat="43.21703600" lon="5.51116800"><ele>182</ele><time>2007-08-13T12:51:34Z</time></trkpt>
<trkpt lat="43.21693300" lon="5.51134000"><ele>180</ele><time>2007-08-13T12:51:34Z</time></trkpt>
<trkpt lat="43.21685600" lon="5.51147500"><ele>178</ele><time>2007-08-13T12:51:34Z</time></trkpt>
<trkpt lat="43.21676900" lon="5.51164000"><ele>176</ele><time>2007-08-13T12:51:34Z</time></trkpt>
<trkpt lat="43.21666600" lon="5.51178200"><ele>174</ele><time>2007-08-13T12:51:34Z</time></trkpt>
<trkpt lat="43.21660100" lon="5.51196100"><ele>172</ele><time>2007-08-13T12:51:34Z</time></trkpt>
<trkpt lat="43.21656800" lon="5.51211800"><ele>169</ele><time>2007-08-13T12:51:34Z</time></trkpt>
<trkpt lat="43.21659500" lon="5.51228300"><ele>167</ele><time>2007-08-13T12:51:34Z</time></trkpt>
<trkpt lat="43.21667200" lon="5.51242500"><ele>168</ele><time>2007-08-13T12:51:34Z</time></trkpt>
<trkpt lat="43.21668800" lon="5.51255200"><ele>167</ele><time>2007-08-13T12:51:34Z</time></trkpt>
<trkpt lat="43.21668300" lon="5.51272400"><ele>167</ele><time>2007-08-13T12:51:34Z</time></trkpt>
<trkpt lat="43.21666100" lon="5.51295500"><ele>166</ele><time>2007-08-13T12:51:34Z</time></trkpt>
<trkpt lat="43.21666100" lon="5.51319500"><ele>165</ele><time>2007-08-13T12:51:34Z</time></trkpt>
<trkpt lat="43.21666100" lon="5.51343400"><ele>165</ele><time>2007-08-13T12:51:34Z</time></trkpt>
<trkpt lat="43.21661800" lon="5.51363600"><ele>163</ele><time>2007-08-13T12:51:34Z</time></trkpt>
<trkpt lat="43.21655200" lon="5.51389000"><ele>159</ele><time>2007-08-13T12:51:34Z</time></trkpt>
<trkpt lat="43.21653100" lon="5.51405400"><ele>156</ele><time>2007-08-13T12:51:34Z</time></trkpt>
<trkpt lat="43.21655800" lon="5.51423400"><ele>156</ele><time>2007-08-13T12:51:34Z</time></trkpt>
<trkpt lat="43.21658500" lon="5.51444300"><ele>156</ele><time>2007-08-13T12:51:34Z</time></trkpt>
<trkpt lat="43.21664000" lon="5.51462200"><ele>159</ele><time>2007-08-13T12:51:34Z</time></trkpt>
<trkpt lat="43.21664000" lon="5.51477900"><ele>159</ele><time>2007-08-13T12:51:34Z</time></trkpt>
<trkpt lat="43.21653600" lon="5.51490700"><ele>156</ele><time>2007-08-13T12:51:34Z</time></trkpt>
<trkpt lat="43.21643800" lon="5.51504900"><ele>152</ele><time>2007-08-13T12:51:34Z</time></trkpt>
<trkpt lat="43.21638400" lon="5.51519800"><ele>149</ele><time>2007-08-13T12:51:34Z</time></trkpt>
<trkpt lat="43.21638400" lon="5.51533300"><ele>148</ele><time>2007-08-13T12:51:34Z</time></trkpt>
<trkpt lat="43.21643300" lon="5.51553500"><ele>148</ele><time>2007-08-13T12:51:34Z</time></trkpt>
<trkpt lat="43.21647100" lon="5.51569100"><ele>150</ele><time>2007-08-13T12:51:34Z</time></trkpt>
<trkpt lat="43.21652000" lon="5.51588600"><ele>152</ele><time>2007-08-13T12:51:34Z</time></trkpt>
<trkpt lat="43.21647200" lon="5.51600500"><ele>151</ele><time>2007-08-13T12:51:34Z</time></trkpt>
<trkpt lat="43.21636300" lon="5.51614800"><ele>149</ele><time>2007-08-13T12:51:34Z</time></trkpt>
<trkpt lat="43.21622100" lon="5.51623700"><ele>146</ele><time>2007-08-13T12:51:34Z</time></trkpt>
<trkpt lat="43.21601400" lon="5.51640900"><ele>142</ele><time>2007-08-13T12:51:34Z</time></trkpt>
<trkpt lat="43.21586700" lon="5.51652200"><ele>140</ele><time>2007-08-13T12:51:34Z</time></trkpt>
<trkpt lat="43.21578000" lon="5.51669400"><ele>139</ele><time>2007-08-13T12:51:34Z</time></trkpt>
<trkpt lat="43.21570200" lon="5.51686300"><ele>138</ele><time>2007-08-13T12:51:34Z</time></trkpt>
<trkpt lat="43.21563600" lon="5.51705000"><ele>136</ele><time>2007-08-13T12:51:34Z</time></trkpt>
<trkpt lat="43.21560400" lon="5.51725200"><ele>134</ele><time>2007-08-13T12:51:34Z</time></trkpt>
<trkpt lat="43.21558200" lon="5.51748400"><ele>134</ele><time>2007-08-13T12:51:34Z</time></trkpt>
<trkpt lat="43.21564200" lon="5.51769300"><ele>136</ele><time>2007-08-13T12:51:34Z</time></trkpt>
<trkpt lat="43.21568600" lon="5.51786500"><ele>136</ele><time>2007-08-13T12:51:34Z</time></trkpt>
<trkpt lat="43.21571300" lon="5.51802900"><ele>137</ele><time>2007-08-13T12:51:34Z</time></trkpt>
<trkpt lat="43.21567000" lon="5.51812600"><ele>137</ele><time>2007-08-13T12:51:34Z</time></trkpt>
<trkpt lat="43.21553900" lon="5.51812700"><ele>135</ele><time>2007-08-13T12:51:34Z</time></trkpt>
<trkpt lat="43.21538600" lon="5.51813400"><ele>132</ele><time>2007-08-13T12:51:34Z</time></trkpt>
<trkpt lat="43.21523900" lon="5.51808200"><ele>129</ele><time>2007-08-13T12:51:34Z</time></trkpt>
<trkpt lat="43.21507600" lon="5.51804500"><ele>127</ele><time>2007-08-13T12:51:34Z</time></trkpt>
<trkpt lat="43.21490100" lon="5.51800700"><ele>126</ele><time>2007-08-13T12:51:34Z</time></trkpt>
<trkpt lat="43.21476000" lon="5.51794000"><ele>124</ele><time>2007-08-13T12:51:34Z</time></trkpt>
<trkpt lat="43.21462300" lon="5.51793300"><ele>123</ele><time>2007-08-13T12:51:34Z</time></trkpt>
<trkpt lat="43.21449300" lon="5.51788800"><ele>123</ele><time>2007-08-13T12:51:34Z</time></trkpt>
<trkpt lat="43.21435100" lon="5.51785100"><ele>122</ele><time>2007-08-13T12:51:34Z</time></trkpt>
<trkpt lat="43.21418800" lon="5.51778400"><ele>122</ele><time>2007-08-13T12:51:34Z</time></trkpt>
<trkpt lat="43.21403000" lon="5.51776100"><ele>122</ele><time>2007-08-13T12:51:34Z</time></trkpt>
<trkpt lat="43.21391500" lon="5.51778400"><ele>122</ele><time>2007-08-13T12:51:34Z</time></trkpt>
<trkpt lat="43.21381700" lon="5.51789600"><ele>122</ele><time>2007-08-13T12:51:34Z</time></trkpt>
<trkpt lat="43.21366500" lon="5.51805300"><ele>121</ele><time>2007-08-13T12:51:34Z</time></trkpt>
<trkpt lat="43.21357800" lon="5.51819500"><ele>120</ele><time>2007-08-13T12:51:34Z</time></trkpt>
<trkpt lat="43.21354000" lon="5.51839000"><ele>119</ele><time>2007-08-13T12:51:34Z</time></trkpt>
<trkpt lat="43.21351200" lon="5.51863600"><ele>118</ele><time>2007-08-13T12:51:34Z</time></trkpt>
<trkpt lat="43.21349100" lon="5.51888300"><ele>116</ele><time>2007-08-13T12:51:34Z</time></trkpt>
<trkpt lat="43.21343600" lon="5.51912200"><ele>115</ele><time>2007-08-13T12:51:34Z</time></trkpt>
<trkpt lat="43.21337100" lon="5.51940600"><ele>113</ele><time>2007-08-13T12:51:34Z</time></trkpt>
<trkpt lat="43.21332200" lon="5.51959300"><ele>111</ele><time>2007-08-13T12:51:34Z</time></trkpt>
<trkpt lat="43.21326800" lon="5.51985500"><ele>108</ele><time>2007-08-13T12:51:34Z</time></trkpt>
<trkpt lat="43.21328400" lon="5.52007900"><ele>107</ele><time>2007-08-13T12:51:34Z</time></trkpt>
<trkpt lat="43.21330600" lon="5.52025900"><ele>106</ele><time>2007-08-13T12:51:34Z</time></trkpt>
<trkpt lat="43.21338800" lon="5.52044500"><ele>105</ele><time>2007-08-13T12:51:34Z</time></trkpt>
<trkpt lat="43.21334400" lon="5.52072900"><ele>100</ele><time>2007-08-13T12:51:34Z</time></trkpt>
<trkpt lat="43.21330100" lon="5.52096100"><ele>95</ele><time>2007-08-13T12:51:34Z</time></trkpt>
<trkpt lat="43.21328400" lon="5.52117100"><ele>90</ele><time>2007-08-13T12:51:34Z</time></trkpt>
<trkpt lat="43.21335500" lon="5.52135700"><ele>90</ele><time>2007-08-13T12:51:34Z</time></trkpt>
<trkpt lat="43.21336100" lon="5.52158200"><ele>87</ele><time>2007-08-13T12:51:34Z</time></trkpt>
<trkpt lat="43.21334400" lon="5.52179700"><ele>79</ele><time>2007-08-13T12:51:34Z</time></trkpt>
<trkpt lat="43.21333800" lon="5.52196900"><ele>73</ele><time>2007-08-13T12:51:34Z</time></trkpt>
<trkpt lat="43.21339300" lon="5.52211900"><ele>70</ele><time>2007-08-13T12:51:34Z</time></trkpt>
<trkpt lat="43.21349100" lon="5.52221600"><ele>71</ele><time>2007-08-13T12:51:34Z</time></trkpt>
<trkpt lat="43.21358300" lon="5.52231300"><ele>71</ele><time>2007-08-13T12:51:34Z</time></trkpt>
<trkpt lat="43.21364900" lon="5.52244700"><ele>67</ele><time>2007-08-13T12:51:34Z</time></trkpt>
<trkpt lat="43.21374700" lon="5.52252200"><ele>66</ele><time>2007-08-13T12:51:34Z</time></trkpt>
<trkpt lat="43.21375800" lon="5.52264200"><ele>59</ele><time>2007-08-13T12:51:34Z</time></trkpt>
<trkpt lat="43.21364300" lon="5.52264200"><ele>57</ele><time>2007-08-13T12:51:34Z</time></trkpt>
<trkpt lat="43.21351800" lon="5.52256700"><ele>55</ele><time>2007-08-13T12:51:34Z</time></trkpt>
<trkpt lat="43.21343600" lon="5.52244000"><ele>58</ele><time>2007-08-13T12:51:34Z</time></trkpt>
<trkpt lat="43.21336000" lon="5.52231300"><ele>61</ele><time>2007-08-13T12:51:34Z</time></trkpt>
<trkpt lat="43.21327300" lon="5.52218600"><ele>62</ele><time>2007-08-13T12:51:34Z</time></trkpt>
<trkpt lat="43.21318600" lon="5.52209600"><ele>60</ele><time>2007-08-13T12:51:34Z</time></trkpt>
<trkpt lat="43.21309300" lon="5.52205900"><ele>55</ele><time>2007-08-13T12:51:34Z</time></trkpt>
<trkpt lat="43.21309300" lon="5.52217900"><ele>51</ele><time>2007-08-13T12:51:34Z</time></trkpt>
<trkpt lat="43.21320800" lon="5.52227600"><ele>54</ele><time>2007-08-13T12:51:34Z</time></trkpt>
<trkpt lat="43.21327800" lon="5.52236500"><ele>54</ele><time>2007-08-13T12:51:34Z</time></trkpt>
<trkpt lat="43.21333800" lon="5.52254500"><ele>49</ele><time>2007-08-13T12:51:34Z</time></trkpt>
<trkpt lat="43.21339300" lon="5.52268700"><ele>44</ele><time>2007-08-13T12:51:34Z</time></trkpt>
<trkpt lat="43.21350700" lon="5.52273900"><ele>47</ele><time>2007-08-13T12:51:34Z</time></trkpt>
<trkpt lat="43.21362700" lon="5.52287400"><ele>45</ele><time>2007-08-13T12:51:34Z</time></trkpt>
<trkpt lat="43.21370400" lon="5.52298600"><ele>42</ele><time>2007-08-13T12:51:34Z</time></trkpt>
<trkpt lat="43.21376900" lon="5.52312800"><ele>34</ele><time>2007-08-13T12:51:34Z</time></trkpt>
<trkpt lat="43.21367600" lon="5.52314300"><ele>33</ele><time>2007-08-13T12:51:34Z</time></trkpt>
<trkpt lat="43.21357300" lon="5.52304500"><ele>36</ele><time>2007-08-13T12:51:34Z</time></trkpt>
<trkpt lat="43.21345300" lon="5.52299300"><ele>35</ele><time>2007-08-13T12:51:34Z</time></trkpt>
<trkpt lat="43.21332800" lon="5.52291900"><ele>34</ele><time>2007-08-13T12:51:34Z</time></trkpt>
<trkpt lat="43.21322400" lon="5.52285900"><ele>32</ele><time>2007-08-13T12:51:34Z</time></trkpt>
<trkpt lat="43.21307700" lon="5.52273200"><ele>30</ele><time>2007-08-13T12:51:34Z</time></trkpt>
<trkpt lat="43.21298400" lon="5.52267200"><ele>28</ele><time>2007-08-13T12:51:34Z</time></trkpt>
<trkpt lat="43.21288100" lon="5.52268000"><ele>23</ele><time>2007-08-13T12:51:34Z</time></trkpt>
<trkpt lat="43.21277700" lon="5.52260500"><ele>23</ele><time>2007-08-13T12:51:34Z</time></trkpt>
<trkpt lat="43.21270600" lon="5.52243300"><ele>25</ele><time>2007-08-13T12:51:34Z</time></trkpt>
<trkpt lat="43.21262500" lon="5.52238100"><ele>24</ele><time>2007-08-13T12:51:34Z</time></trkpt>
</trkseg></trk></gpx>